Location: Alexandria
(38.8050°N, 77.0470°W)
Time: 23:02:03
(UTC-05:00)

N. Korean satellite - Pass Details

Date: 14 February 2018
Orbit: 459 x 514 km, 97.2° (Epoch: 23 February)

Event Time Altitude Azimuth Distance (km) Brightness Sun altitude
Rises 18:24:16 0° 182° (S) 2,471 10.3 -8.3°
Reaches altitude 10° 18:26:23 10° 190° (S) 1,599 9.4 -8.7°
Maximum altitude 18:29:38 41° 261° (W) 682 8.0 -9.4°
Drops below altitude 10° 18:32:55 10° 333° (NNW) 1,612 9.4 -10.0°
Sets 18:35:03 0° 341° (NNW) 2,494 10.3 -10.4°
